SCP
0 0 0 0 0 0 0 0 0 0 0 0 0 0 0 0 0 0 0 0 0 0
0 0 0 0 0 0 0 0 0 0 0 0 0 0 0 0 0 0 0 0 0 0
0 0 0 0 0 0 0 0 0 0 0 0 0 0 0 0 0 0 0 0 0 0
0 0 0 0 0 0 0 0 0 0 0 0 0 0 0 0 0 0 0 0 0 0
0 0 0 0 0 0 0 0 0 0 0 0 0 0 0 0 0 0 0 0 0 0
0 0 0 0 0 0 0 0 0 0 0 0 0 0 0 0 0 0 0 0 0 0
0 0 0 0 0 0 0 0 0 0 0 0 0 0 0 0 0 0 0 0 0 0
0 0 0 0 0 0 0 0 0 0 0 0 0 0 0 0 0 0 0 0 0 0
0 0 0 0 0 0 0 0 0 0 0 0 0 0 0 0 0 0 0 0 0 0
0 0 0 0 0 0 0 0 0 0 0 0 0 0 0 0 0 0 0 0 0 0
0 0 0 0 0 0 0 0 0 0 0 0 0 0 0 0 0 0 0 0 0 0
0 0 0 0 0 0 0 0 0 0 0 0 0 0 0 0 0 0 0 0 0 0
0 0 0 0 0 0 0 0 0 0 0 0 0 0 0 0 0 0 0 0 0 0
0 0 0 0 0 0 0 0 0 0 0 0 0 0 0 0 0 0 0 0 0 0
Wind_Speed_500mb
52 47 43 37 34 35 36 41 42 45 50 52 52 50 49 48 47 42 42 44 42 45
48 47 40 34 42 44 45 45 45 49 53 53 51 50 50 51 52 52 48 46 49 50
53 49 46 45 47 47 48 49 50 55 55 54 52 52 52 53 57 58 53 46 48 49
48 46 44 46 48 49 49 50 54 56 56 56 55 54 54 58 63 61 58 55 54 60
47 48 49 51 51 51 51 53 57 59 59 59 58 56 58 65 68 63 58 58 52 54
50 48 48 50 50 51 54 57 59 60 60 62 62 61 67 76 73 64 64 62 60 57
45 49 44 43 51 56 57 58 61 62 64 66 67 69 78 81 76 65 63 63 64 66
49 52 53 53 55 55 58 63 65 66 68 69 70 81 83 78 68 66 70 70 71 71
45 48 44 45 52 56 60 63 66 74 79 80 82 83 80 72 74 77 79 78 78 76
43 41 41 46 49 55 62 70 75 83 85 84 81 77 72 67 71 78 81 82 83 84
37 38 42 47 57 62 65 74 80 85 85 81 75 75 73 71 75 80 83 85 87 88
34 40 44 53 57 66 73 76 78 79 77 77 76 72 77 76 75 79 82 82 82 82
38 45 53 55 65 67 68 72 70 71 67 73 79 66 60 60 66 75 78 80 83 83
42 41 51 59 59 60 60 60 63 68 68 70 67 62 57 62 68 73 80 89 99 103
Wind_Direction_500mb
227 236 249 257 267 270 276 292 296 304 307 307 305 302 298 295 297 291 282 279 277 278
234 240 246 249 259 273 283 291 297 301 301 298 295 294 294 294 295 291 282 277 275 273
236 245 253 257 264 271 280 286 294 305 307 303 299 297 295 293 294 292 285 275 275 276
237 246 256 264 272 277 284 292 298 303 303 300 295 292 287 286 289 288 281 279 272 269
239 242 250 261 270 278 284 291 297 299 298 294 291 287 281 281 281 281 274 277 277 279
237 250 258 269 276 283 286 291 294 295 292 290 289 283 277 281 281 277 271 273 277 281
246 251 261 261 268 276 285 290 293 292 289 287 285 279 281 286 286 279 271 269 269 271
238 247 257 265 275 282 283 286 289 289 288 286 281 282 286 287 281 276 274 276 275 275
246 253 260 265 274 282 287 287 286 286 288 287 285 284 284 276 270 272 274 276 272 273
245 254 260 271 275 277 277 282 284 287 291 292 293 293 292 288 282 278 275 273 272 271
251 258 262 267 269 276 280 281 286 290 294 295 293 290 290 284 282 282 281 279 277 275
258 263 261 266 274 276 283 286 287 289 290 292 292 290 290 291 289 286 283 282 280 273
251 256 271 274 278 288 290 291 297 300 299 294 301 310 311 308 300 294 289 289 289 287
264 272 268 281 291 297 303 304 299 302 311 312 311 307 291 287 286 285 284 282 283 285
Wind_Speed_850mb
52 47 43 37 34 35 36 41 42 45 50 52 52 50 49 48 47 42 42 44 42 45
48 47 40 34 42 44 45 45 45 49 53 53 51 50 50 51 52 52 48 46 49 50
53 49 46 45 47 47 48 49 50 55 55 54 52 52 52 53 57 58 53 46 48 49
48 46 44 46 48 49 49 50 54 56 56 56 55 54 54 58 63 61 58 55 54 60
47 48 49 51 51 51 51 53 57 59 59 59 58 56 58 65 68 63 58 58 52 54
50 48 48 50 50 51 54 57 59 60 60 62 62 61 67 76 73 64 64 62 60 57
45 49 44 43 51 56 57 58 61 62 64 66 67 69 78 81 76 65 63 63 64 66
49 52 53 53 55 55 58 63 65 66 68 69 70 81 83 78 68 66 70 70 71 71
45 48 44 45 52 56 60 63 66 74 79 80 82 83 80 72 74 77 79 78 78 76
43 41 41 46 49 55 62 70 75 83 85 84 81 77 72 67 71 78 81 82 83 84
37 38 42 47 57 62 65 74 80 85 85 81 75 75 73 71 75 80 83 85 87 88
34 40 44 53 57 66 73 76 78 79 77 77 76 72 77 76 75 79 82 82 82 82
38 45 53 55 65 67 68 72 70 71 67 73 79 66 60 60 66 75 78 80 83 83
42 41 51 59 59 60 60 60 63 68 68 70 67 62 57 62 68 73 80 89 99 103
Wind_Direction_850mb
227 236 249 257 267 270 276 292 296 304 307 307 305 302 298 295 297 291 282 279 277 278
234 240 246 249 259 273 283 291 297 301 301 298 295 294 294 294 295 291 282 277 275 273
236 245 253 257 264 271 280 286 294 305 307 303 299 297 295 293 294 292 285 275 275 276
237 246 256 264 272 277 284 292 298 303 303 300 295 292 287 286 289 288 281 279 272 269
239 242 250 261 270 278 284 291 297 299 298 294 291 287 281 281 281 281 274 277 277 279
237 250 258 269 276 283 286 291 294 295 292 290 289 283 277 281 281 277 271 273 277 281
246 251 261 261 268 276 285 290 293 292 289 287 285 279 281 286 286 279 271 269 269 271
238 247 257 265 275 282 283 286 289 289 288 286 281 282 286 287 281 276 274 276 275 275
246 253 260 265 274 282 287 287 286 286 288 287 285 284 284 276 270 272 274 276 272 273
245 254 260 271 275 277 277 282 284 287 291 292 293 293 292 288 282 278 275 273 272 271
251 258 262 267 269 276 280 281 286 290 294 295 293 290 290 284 282 282 281 279 277 275
258 263 261 266 274 276 283 286 287 289 290 292 292 290 290 291 289 286 283 282 280 273
251 256 271 274 278 288 290 291 297 300 299 294 301 310 311 308 300 294 289 289 289 287
264 272 268 281 291 297 303 304 299 302 311 312 311 307 291 287 286 285 284 282 283 285